AFR604 TFFF-SOCA

Flight info

Callsign AFR604
Flight time 2h 6m
Altitude 23000
Route BORUS2R BORUS A555 BGI/N0451F370 UA555 TRAPP UM786 KALEP KALEP1U
Aircraft A320/M-SDE3FGHIRWY/LB1

Departure

Time 2026-04-25 21:40
Airport Martinique Aimé Césaire International Airport (TFFF)

Arrival

Time 2026-04-25 23:47
Airport Cayenne – Félix Eboué Airport (SOCA)
Time Latitude Longitude Altitude Speed Heading
2026-04-25 20:30 14.59447 -60.99970 19 ft 0 kts
2026-04-25 21:29 14.59440 -60.99970 17 ft 3 kts 10°
2026-04-25 21:29 14.59420 -60.99976 17 ft 3 kts 20°
2026-04-25 21:30 14.59401 -60.99982 19 ft 1 kts
2026-04-25 21:30 14.59382 -60.99983 18 ft 3 kts 343°
2026-04-25 21:30 14.59368 -60.99974 18 ft 3 kts 289°
2026-04-25 21:30 14.59365 -60.99961 21 ft 3 kts 267°
2026-04-25 21:31 14.59367 -60.99945 18 ft 0 kts 260°
2026-04-25 21:34 14.59363 -60.99969 18 ft 7 kts 260°
2026-04-25 21:35 14.59356 -61.00013 18 ft 6 kts 259°
2026-04-25 21:35 14.59324 -61.00042 18 ft 8 kts 191°
2026-04-25 21:35 14.59272 -61.00036 19 ft 10 kts 170°
2026-04-25 21:35 14.59182 -61.00026 18 ft 14 kts 191°
2026-04-25 21:36 14.59142 -61.00115 16 ft 14 kts 261°
2026-04-25 21:36 14.59123 -61.00217 15 ft 16 kts 259°
2026-04-25 21:36 14.59103 -61.00339 15 ft 19 kts 261°
2026-04-25 21:36 14.59079 -61.00480 14 ft 20 kts 259°
2026-04-25 21:37 14.59056 -61.00614 16 ft 20 kts 260°
2026-04-25 21:37 14.59047 -61.00662 19 ft 21 kts 259°
2026-04-25 21:37 14.58996 -61.00968 21 ft 28 kts 259°
2026-04-25 21:37 14.58960 -61.01170 26 ft 29 kts 261°
2026-04-25 21:38 14.58926 -61.01377 23 ft 30 kts 259°
2026-04-25 21:38 14.58891 -61.01571 20 ft 24 kts 261°
2026-04-25 21:38 14.58882 -61.01719 17 ft 15 kts 282°
2026-04-25 21:38 14.58914 -61.01798 16 ft 7 kts 282°
2026-04-25 21:39 14.58883 -61.01830 15 ft 7 kts 188°
2026-04-25 21:39 14.58849 -61.01809 16 ft 5 kts 110°
2026-04-25 21:39 14.58858 -61.01763 15 ft 14 kts 76°
2026-04-25 21:39 14.58917 -61.01425 22 ft 82 kts 80°
2026-04-25 21:40 14.59051 -61.00632 17 ft 140 kts 81°
2026-04-25 21:40 14.59171 -60.99908 116 ft 159 kts 83°
2026-04-25 21:40 14.59358 -60.98816 842 ft 153 kts 84°
2026-04-25 21:40 14.59544 -60.97710 1359 ft 165 kts 80°
2026-04-25 21:41 14.59767 -60.96466 1675 ft 185 kts 83°
2026-04-25 21:41 14.59982 -60.95078 2003 ft 206 kts 84°
2026-04-25 21:41 14.60182 -60.93523 2274 ft 233 kts 83°
2026-04-25 21:41 14.60459 -60.91781 2669 ft 255 kts 82°
2026-04-25 21:42 14.60740 -60.89961 3526 ft 258 kts 89°
2026-04-25 21:42 14.60385 -60.88156 4242 ft 262 kts 122°
2026-04-25 21:42 14.59164 -60.86795 5001 ft 266 kts 142°
2026-04-25 21:42 14.57638 -60.85721 5878 ft 267 kts 149°
2026-04-25 21:43 14.56029 -60.84726 6661 ft 272 kts 150°
2026-04-25 21:43 14.54397 -60.83707 7419 ft 275 kts 150°
2026-04-25 21:43 14.52769 -60.82635 8201 ft 279 kts 149°
2026-04-25 21:43 14.51140 -60.81504 8936 ft 284 kts 148°
2026-04-25 21:44 14.49510 -60.80327 9675 ft 289 kts 147°
2026-04-25 21:44 14.47860 -60.79104 10261 ft 298 kts 146°
2026-04-25 21:44 14.44250 -60.76396 10784 ft 337 kts 146°
2026-04-25 21:45 14.42342 -60.74956 11371 ft 343 kts 145°
2026-04-25 21:45 14.41063 -60.73988 11782 ft 346 kts 145°
2026-04-25 21:45 14.38473 -60.72030 12652 ft 350 kts 145°
2026-04-25 21:45 14.36495 -60.70541 13298 ft 354 kts 146°
2026-04-25 21:46 14.34496 -60.69040 13911 ft 357 kts 146°
2026-04-25 21:46 14.32479 -60.67525 14509 ft 359 kts 146°
2026-04-25 21:46 14.30450 -60.66002 15059 ft 362 kts 146°
2026-04-25 21:46 14.28403 -60.64469 15600 ft 366 kts 146°
2026-04-25 21:47 14.26333 -60.62920 16148 ft 369 kts 146°
2026-04-25 21:47 14.24245 -60.61356 16684 ft 372 kts 146°
2026-04-25 21:47 14.22143 -60.59778 17215 ft 376 kts 146°
2026-04-25 21:47 14.20019 -60.58185 17738 ft 379 kts 146°
2026-04-25 21:48 14.17872 -60.56573 18263 ft 382 kts 146°
2026-04-25 21:48 14.15709 -60.54952 18721 ft 385 kts 146°
2026-04-25 21:48 14.13534 -60.53324 19184 ft 388 kts 146°
2026-04-25 21:48 14.11346 -60.51685 19654 ft 390 kts 146°
2026-04-25 21:49 14.09168 -60.50053 20117 ft 393 kts 146°
2026-04-25 21:49 14.06948 -60.48394 20582 ft 395 kts 146°
2026-04-25 21:49 14.04733 -60.46697 21046 ft 399 kts 142°
2026-04-25 21:49 14.02708 -60.44722 21512 ft 402 kts 137°
2026-04-25 21:50 14.00716 -60.42690 21985 ft 405 kts 137°
2026-04-25 21:50 13.98710 -60.40647 22447 ft 407 kts 137°
2026-04-25 21:50 13.96686 -60.38586 22913 ft 409 kts 137°
2026-04-25 21:50 13.95344 -60.37220 23203 ft 410 kts 137°
2026-04-25 21:51 13.92612 -60.34439 23728 ft 414 kts 137°
2026-04-25 21:51 13.90557 -60.32348 24063 ft 416 kts 137°
2026-04-25 21:51 13.88519 -60.30272 24389 ft 419 kts 137°
2026-04-25 21:51 13.86437 -60.28155 24713 ft 422 kts 137°
2026-04-25 21:52 13.84341 -60.26030 25034 ft 424 kts 137°
2026-04-25 21:52 13.82229 -60.23892 25350 ft 427 kts 137°
2026-04-25 21:52 13.80104 -60.21739 25664 ft 430 kts 137°
2026-04-25 21:52 13.77970 -60.19572 25969 ft 432 kts 137°
2026-04-25 21:53 13.75818 -60.17388 26270 ft 435 kts 137°
2026-04-25 21:53 13.73662 -60.15198 26576 ft 437 kts 137°
2026-04-25 21:53 13.71496 -60.13001 26868 ft 439 kts 137°
2026-04-25 21:53 13.69311 -60.10787 27157 ft 442 kts 137°
2026-04-25 21:54 13.67119 -60.08564 27447 ft 444 kts 137°
2026-04-25 21:54 13.64914 -60.06327 27722 ft 446 kts 137°
2026-04-25 21:54 13.62696 -60.04077 27995 ft 449 kts 137°
2026-04-25 21:54 13.60468 -60.01818 28256 ft 451 kts 137°
2026-04-25 21:55 13.58224 -59.99546 28523 ft 454 kts 137°
2026-04-25 21:55 13.55968 -59.97267 28781 ft 456 kts 138°
2026-04-25 21:55 13.53698 -59.94975 29037 ft 459 kts 138°
2026-04-25 21:55 13.51418 -59.92674 29282 ft 461 kts 138°
2026-04-25 21:56 13.49129 -59.90360 29522 ft 463 kts 138°
2026-04-25 21:56 13.47603 -59.88818 29680 ft 465 kts 138°
2026-04-25 21:56 13.44548 -59.85732 30057 ft 465 kts 137°
2026-04-25 21:56 13.42231 -59.83394 30278 ft 467 kts 137°
2026-04-25 21:57 13.39914 -59.81055 30481 ft 468 kts 137°
2026-04-25 21:57 13.37585 -59.78703 30686 ft 469 kts 137°
2026-04-25 21:57 13.35252 -59.76347 30884 ft 470 kts 137°
2026-04-25 21:57 13.32915 -59.73989 31082 ft 472 kts 137°
2026-04-25 21:58 13.30576 -59.71624 31311 ft 472 kts 137°
2026-04-25 21:58 13.28241 -59.69262 31579 ft 471 kts 137°
2026-04-25 21:58 13.25940 -59.66938 31881 ft 468 kts 137°
2026-04-25 21:58 13.23620 -59.64599 32214 ft 466 kts 137°
2026-04-25 21:59 13.21307 -59.62271 32521 ft 465 kts 138°
2026-04-25 21:59 13.19002 -59.59952 32828 ft 463 kts 137°
2026-04-25 21:59 13.16698 -59.57633 33115 ft 463 kts 137°
2026-04-25 22:00 13.12111 -59.53021 33702 ft 461 kts 138°
2026-04-25 22:00 13.09823 -59.50718 33982 ft 460 kts 138°
2026-04-25 22:00 13.07534 -59.48415 34218 ft 460 kts 139°
2026-04-25 22:00 13.05202 -59.46178 34441 ft 459 kts 140°
2026-04-25 22:01 13.02813 -59.44009 34655 ft 458 kts 142°
2026-04-25 22:01 13.00389 -59.41885 34862 ft 458 kts 142°
2026-04-25 22:01 12.97951 -59.39777 35068 ft 458 kts 142°
2026-04-25 22:01 12.96325 -59.38371 35206 ft 458 kts 142°
2026-04-25 22:02 12.93113 -59.35565 35471 ft 458 kts 142°
2026-04-25 22:02 12.90696 -59.33424 35662 ft 459 kts 142°
2026-04-25 22:02 12.88291 -59.31276 35840 ft 459 kts 142°
2026-04-25 22:02 12.85883 -59.29120 36006 ft 460 kts 142°
2026-04-25 22:03 12.83502 -59.26991 36187 ft 460 kts 142°
2026-04-25 22:03 12.81093 -59.24838 36380 ft 459 kts 142°
2026-04-25 22:03 12.78684 -59.22692 36570 ft 459 kts 142°
2026-04-25 22:03 12.76274 -59.20547 36749 ft 459 kts 142°
2026-04-25 22:04 12.73865 -59.18407 36910 ft 459 kts 142°
2026-04-25 22:04 12.71457 -59.16265 36946 ft 458 kts 142°
2026-04-25 22:04 12.66654 -59.11991 36950 ft 457 kts 142°
2026-04-25 22:05 12.61840 -59.07724 36958 ft 457 kts 142°
2026-04-25 22:05 12.57034 -59.03460 36958 ft 457 kts 142°
2026-04-25 22:06 12.52232 -58.99193 36956 ft 457 kts 142°
2026-04-25 22:06 12.47453 -58.94951 36957 ft 457 kts 142°
2026-04-25 22:07 12.43449 -58.91405 36967 ft 458 kts 142°
2026-04-25 22:07 12.37815 -58.86414 36967 ft 458 kts 142°
2026-04-25 22:08 12.33000 -58.82150 36966 ft 458 kts 142°
2026-04-25 22:08 12.28179 -58.77885 36971 ft 457 kts 142°
2026-04-25 22:09 12.23402 -58.73656 36963 ft 457 kts 142°
2026-04-25 22:09 12.18599 -58.69398 36975 ft 457 kts 142°
2026-04-25 22:10 12.13799 -58.65146 36984 ft 456 kts 142°
2026-04-25 22:10 12.09009 -58.60912 36981 ft 455 kts 142°
2026-04-25 22:11 12.04210 -58.56678 36974 ft 455 kts 142°
2026-04-25 22:11 11.99453 -58.52492 36973 ft 454 kts 142°
2026-04-25 22:12 11.94664 -58.48273 36978 ft 454 kts 142°
2026-04-25 22:12 11.90682 -58.44763 36961 ft 455 kts 142°
2026-04-25 22:13 11.85083 -58.39816 36959 ft 455 kts 141°
2026-04-25 22:13 11.80322 -58.35618 36965 ft 455 kts 142°
2026-04-25 22:14 11.75528 -58.31403 36972 ft 455 kts 141°
2026-04-25 22:14 11.70729 -58.27181 36969 ft 455 kts 142°
2026-04-25 22:15 11.65936 -58.22961 36972 ft 455 kts 141°
2026-04-25 22:16 11.58757 -58.16644 36965 ft 454 kts 141°
2026-04-25 22:16 11.53974 -58.12444 36961 ft 453 kts 141°
2026-04-25 22:17 11.49193 -58.08247 36968 ft 453 kts 141°
2026-04-25 22:17 11.44453 -58.04088 36965 ft 452 kts 141°
2026-04-25 22:18 11.39692 -57.99909 36972 ft 451 kts 141°
2026-04-25 22:18 11.34933 -57.95735 36964 ft 451 kts 141°
2026-04-25 22:19 11.30171 -57.91563 36959 ft 451 kts 141°
2026-04-25 22:19 11.25413 -57.87399 36968 ft 451 kts 141°
2026-04-25 22:20 11.20659 -57.83228 36965 ft 450 kts 141°
2026-04-25 22:20 11.15940 -57.79093 36966 ft 450 kts 141°
2026-04-25 22:21 11.11188 -57.74935 36965 ft 450 kts 141°
2026-04-25 22:21 11.06430 -57.70776 36965 ft 450 kts 141°
2026-04-25 22:22 11.01674 -57.66621 36962 ft 450 kts 141°
2026-04-25 22:22 10.96949 -57.62493 36965 ft 450 kts 141°
2026-04-25 22:23 10.92192 -57.58332 36964 ft 451 kts 141°
2026-04-25 22:23 10.87416 -57.54166 36963 ft 451 kts 141°
2026-04-25 22:24 10.82682 -57.50030 36966 ft 452 kts 141°
2026-04-25 22:24 10.77905 -57.45864 36970 ft 451 kts 141°
2026-04-25 22:25 10.73138 -57.41708 36978 ft 451 kts 141°
2026-04-25 22:25 10.68377 -57.37552 36979 ft 451 kts 141°
2026-04-25 22:26 10.63615 -57.33411 36974 ft 450 kts 141°
2026-04-25 22:26 10.58891 -57.29295 36973 ft 450 kts 141°
2026-04-25 22:27 10.54137 -57.25154 36972 ft 450 kts 141°
2026-04-25 22:27 10.49385 -57.21017 36970 ft 450 kts 141°
2026-04-25 22:28 10.44636 -57.16885 36969 ft 449 kts 141°
2026-04-25 22:28 10.39887 -57.12765 36971 ft 448 kts 141°
2026-04-25 22:29 10.35144 -57.08647 36977 ft 447 kts 141°
2026-04-25 22:29 10.30432 -57.04550 36982 ft 445 kts 141°
2026-04-25 22:30 10.23413 -56.98443 36975 ft 444 kts 141°
2026-04-25 22:30 10.20274 -56.95716 36976 ft 444 kts 141°
2026-04-25 22:31 10.14028 -56.90305 36976 ft 443 kts 141°
2026-04-25 22:31 10.09339 -56.86247 36975 ft 442 kts 141°
2026-04-25 22:32 10.05455 -56.82873 36972 ft 442 kts 140°
2026-04-25 22:32 10.00779 -56.78821 36977 ft 441 kts 140°
2026-04-25 22:33 9.96120 -56.74784 36982 ft 440 kts 140°
2026-04-25 22:33 9.91469 -56.70756 36976 ft 439 kts 140°
2026-04-25 22:34 9.86814 -56.66729 36958 ft 440 kts 140°
2026-04-25 22:34 9.82177 -56.62714 36954 ft 441 kts 140°
2026-04-25 22:35 9.77492 -56.58660 36959 ft 442 kts 140°
2026-04-25 22:35 9.72807 -56.54617 36956 ft 443 kts 140°
2026-04-25 22:36 9.68116 -56.50565 36962 ft 443 kts 140°
2026-04-25 22:36 9.63418 -56.46506 36964 ft 444 kts 140°
2026-04-25 22:37 9.58720 -56.42450 36969 ft 444 kts 140°
2026-04-25 22:37 9.54018 -56.38393 36972 ft 443 kts 140°
2026-04-25 22:38 9.49322 -56.34341 36972 ft 443 kts 140°
2026-04-25 22:38 9.44633 -56.30290 36975 ft 443 kts 140°
2026-04-25 22:39 9.39974 -56.26273 36977 ft 442 kts 140°
2026-04-25 22:39 9.35308 -56.22245 36985 ft 440 kts 140°
2026-04-25 22:40 9.30649 -56.18235 36973 ft 439 kts 140°
2026-04-25 22:40 9.25992 -56.14228 36967 ft 440 kts 140°
2026-04-25 22:41 9.21336 -56.10220 36982 ft 438 kts 140°
2026-04-25 22:41 9.16696 -56.06229 36984 ft 436 kts 140°
2026-04-25 22:42 9.12075 -56.02249 36970 ft 436 kts 140°
2026-04-25 22:42 9.07418 -55.98392 36972 ft 434 kts 146°
2026-04-25 22:43 9.02462 -55.94887 36969 ft 434 kts 146°
2026-04-25 22:43 8.97506 -55.91384 36953 ft 435 kts 145°
2026-04-25 22:44 8.92545 -55.87876 36949 ft 435 kts 145°
2026-04-25 22:44 8.87575 -55.84354 36931 ft 437 kts 145°
2026-04-25 22:45 8.82586 -55.80819 36930 ft 438 kts 145°
2026-04-25 22:45 8.77620 -55.77305 36945 ft 438 kts 146°
2026-04-25 22:46 8.72627 -55.73777 36968 ft 437 kts 146°
2026-04-25 22:46 8.67657 -55.70265 36975 ft 435 kts 146°
2026-04-25 22:47 8.62692 -55.66750 36972 ft 434 kts 146°
2026-04-25 22:47 8.57766 -55.63271 36969 ft 434 kts 146°
2026-04-25 22:48 8.52817 -55.59780 36970 ft 434 kts 146°
2026-04-25 22:48 8.47877 -55.56293 36971 ft 433 kts 146°
2026-04-25 22:49 8.42944 -55.52809 36974 ft 432 kts 145°
2026-04-25 22:49 8.38013 -55.49336 36971 ft 432 kts 145°
2026-04-25 22:50 8.33091 -55.45870 36966 ft 431 kts 145°
2026-04-25 22:50 8.28202 -55.42413 36966 ft 431 kts 145°
2026-04-25 22:51 8.23285 -55.38946 36965 ft 431 kts 145°
2026-04-25 22:51 8.18355 -55.35475 36966 ft 431 kts 145°
2026-04-25 22:52 8.13437 -55.32011 36962 ft 431 kts 145°
2026-04-25 22:52 8.09348 -55.29139 36969 ft 431 kts 145°
2026-04-25 22:53 8.03634 -55.25111 36969 ft 430 kts 145°
2026-04-25 22:53 7.98724 -55.21647 36967 ft 430 kts 145°
2026-04-25 22:54 7.93815 -55.18196 36957 ft 430 kts 145°
2026-04-25 22:54 7.88898 -55.14747 36955 ft 430 kts 145°
2026-04-25 22:55 7.83986 -55.11291 36958 ft 430 kts 145°
2026-04-25 22:55 7.79111 -55.07860 36959 ft 430 kts 145°
2026-04-25 22:56 7.74208 -55.04413 36958 ft 429 kts 144°
2026-04-25 22:56 7.69311 -55.00974 36958 ft 429 kts 144°
2026-04-25 22:57 7.64411 -54.97532 36953 ft 429 kts 144°
2026-04-25 22:57 7.59512 -54.94096 36948 ft 429 kts 144°
2026-04-25 22:58 7.54607 -54.90652 36956 ft 429 kts 144°
2026-04-25 22:58 7.49728 -54.87235 36954 ft 430 kts 144°
2026-04-25 22:59 7.44824 -54.83797 36957 ft 429 kts 144°
2026-04-25 22:59 7.39921 -54.80352 36960 ft 429 kts 144°
2026-04-25 23:00 7.35024 -54.76916 36962 ft 428 kts 144°
2026-04-25 23:00 7.30126 -54.73489 36963 ft 428 kts 144°
2026-04-25 23:01 7.25235 -54.70055 36959 ft 429 kts 144°
2026-04-25 23:01 7.20336 -54.66618 36959 ft 429 kts 144°
2026-04-25 23:02 7.15432 -54.63186 36956 ft 429 kts 144°
2026-04-25 23:02 7.10563 -54.59774 36959 ft 429 kts 144°
2026-04-25 23:03 7.05663 -54.56350 36965 ft 428 kts 144°
2026-04-25 23:03 7.00769 -54.52923 36960 ft 428 kts 144°
2026-04-25 23:04 6.96704 -54.50075 36964 ft 428 kts 144°
2026-04-25 23:04 6.90987 -54.46076 36969 ft 428 kts 144°
2026-04-25 23:05 6.86096 -54.42662 36966 ft 427 kts 144°
2026-04-25 23:05 6.81235 -54.39268 36963 ft 427 kts 144°
2026-04-25 23:06 6.76350 -54.35859 36963 ft 427 kts 144°
2026-04-25 23:06 6.71465 -54.32444 36965 ft 427 kts 144°
2026-04-25 23:07 6.66587 -54.29028 36967 ft 427 kts 144°
2026-04-25 23:07 6.61702 -54.25624 36964 ft 427 kts 144°
2026-04-25 23:08 6.56825 -54.22214 36962 ft 427 kts 144°
2026-04-25 23:08 6.51981 -54.18824 36963 ft 427 kts 144°
2026-04-25 23:09 6.47096 -54.15420 36970 ft 427 kts 144°
2026-04-25 23:09 6.42207 -54.12010 36971 ft 427 kts 144°
2026-04-25 23:10 6.37331 -54.08610 36969 ft 426 kts 144°
2026-04-25 23:10 6.32483 -54.05228 36967 ft 426 kts 144°
2026-04-25 23:11 6.27613 -54.01830 36969 ft 426 kts 144°
2026-04-25 23:11 6.22764 -53.98398 36968 ft 426 kts 142°
2026-04-25 23:12 6.18047 -53.94787 36969 ft 426 kts 141°
2026-04-25 23:12 6.13411 -53.91152 36966 ft 426 kts 141°
2026-04-25 23:13 6.08724 -53.87508 36965 ft 426 kts 141°
2026-04-25 23:13 6.04025 -53.83879 36965 ft 426 kts 142°
2026-04-25 23:14 5.99288 -53.80288 36969 ft 426 kts 142°
2026-04-25 23:14 5.94555 -53.76695 36368 ft 429 kts 141°
2026-04-25 23:15 5.92172 -53.74877 35443 ft 430 kts 141°
2026-04-25 23:15 5.89799 -53.73065 34665 ft 428 kts 141°
2026-04-25 23:15 5.87446 -53.71261 34109 ft 421 kts 141°
2026-04-25 23:15 5.85133 -53.69485 33549 ft 415 kts 141°
2026-04-25 23:16 5.82860 -53.67741 33023 ft 407 kts 141°
2026-04-25 23:16 5.80652 -53.66048 32515 ft 403 kts 141°
2026-04-25 23:16 5.78426 -53.64344 31992 ft 401 kts 141°
2026-04-25 23:16 5.76208 -53.62648 31486 ft 400 kts 141°
2026-04-25 23:17 5.73997 -53.60958 30980 ft 398 kts 141°
2026-04-25 23:17 5.71797 -53.59279 30516 ft 396 kts 140°
2026-04-25 23:17 5.69611 -53.57608 30046 ft 394 kts 140°
2026-04-25 23:17 5.67437 -53.55946 29499 ft 392 kts 140°
2026-04-25 23:18 5.65275 -53.54296 29024 ft 389 kts 140°
2026-04-25 23:18 5.63131 -53.52659 28549 ft 386 kts 140°
2026-04-25 23:18 5.61004 -53.51032 28081 ft 383 kts 140°
2026-04-25 23:18 5.58894 -53.49418 27632 ft 380 kts 140°
2026-04-25 23:19 5.56795 -53.47811 27175 ft 378 kts 140°
2026-04-25 23:19 5.54710 -53.46216 26745 ft 375 kts 140°
2026-04-25 23:19 5.52645 -53.44634 26315 ft 373 kts 140°
2026-04-25 23:19 5.50592 -53.43060 25879 ft 370 kts 140°
2026-04-25 23:20 5.48551 -53.41495 25450 ft 368 kts 140°
2026-04-25 23:20 5.46516 -53.39936 25017 ft 366 kts 141°
2026-04-25 23:20 5.44489 -53.38387 24573 ft 364 kts 141°
2026-04-25 23:20 5.42476 -53.36851 24136 ft 363 kts 141°
2026-04-25 23:21 5.40493 -53.35337 23688 ft 362 kts 141°
2026-04-25 23:21 5.38488 -53.33805 23189 ft 362 kts 141°
2026-04-25 23:21 5.36491 -53.32282 22720 ft 359 kts 141°
2026-04-25 23:21 5.34499 -53.30763 22265 ft 357 kts 141°
2026-04-25 23:22 5.32525 -53.29258 21815 ft 356 kts 141°
2026-04-25 23:22 5.30560 -53.27761 21362 ft 354 kts 141°
2026-04-25 23:22 5.28602 -53.26270 20910 ft 353 kts 141°
2026-04-25 23:23 5.24704 -53.23291 20010 ft 351 kts 141°
2026-04-25 23:23 5.22787 -53.21823 19568 ft 350 kts 141°
2026-04-25 23:23 5.20853 -53.20345 19123 ft 349 kts 141°
2026-04-25 23:23 5.18917 -53.18867 18662 ft 349 kts 141°
2026-04-25 23:24 5.17129 -53.17223 18196 ft 348 kts 129°
2026-04-25 23:24 5.16160 -53.15950 17856 ft 346 kts 124°
2026-04-25 23:24 5.14779 -53.13974 17400 ft 345 kts 124°
2026-04-25 23:24 5.13401 -53.12014 16953 ft 343 kts 124°
2026-04-25 23:25 5.12025 -53.10068 16509 ft 342 kts 124°
2026-04-25 23:25 5.10652 -53.08126 16070 ft 340 kts 124°
2026-04-25 23:25 5.09286 -53.06194 15637 ft 339 kts 124°
2026-04-25 23:25 5.07923 -53.04263 15209 ft 338 kts 124°
2026-04-25 23:26 5.06566 -53.02341 14773 ft 337 kts 124°
2026-04-25 23:26 5.05210 -53.00422 14337 ft 337 kts 124°
2026-04-25 23:26 5.03856 -52.98506 13905 ft 336 kts 124°
2026-04-25 23:26 5.02505 -52.96592 13437 ft 335 kts 124°
2026-04-25 23:27 5.01163 -52.94690 12988 ft 333 kts 124°
2026-04-25 23:27 4.99831 -52.92799 12537 ft 330 kts 124°
2026-04-25 23:27 4.98509 -52.90925 12118 ft 328 kts 124°
2026-04-25 23:27 4.97212 -52.89088 11690 ft 326 kts 124°
2026-04-25 23:28 4.95908 -52.87243 11247 ft 323 kts 123°
2026-04-25 23:28 4.94611 -52.85409 10809 ft 321 kts 123°
2026-04-25 23:28 4.93323 -52.83586 10368 ft 319 kts 123°
2026-04-25 23:28 4.92045 -52.81777 10065 ft 312 kts 123°
2026-04-25 23:29 4.90813 -52.80039 9943 ft 300 kts 123°
2026-04-25 23:29 4.89629 -52.78367 9810 ft 288 kts 123°
2026-04-25 23:29 4.88481 -52.76740 9488 ft 284 kts 123°
2026-04-25 23:29 4.87353 -52.75141 8848 ft 280 kts 123°
2026-04-25 23:30 4.86233 -52.73556 8174 ft 277 kts 123°
2026-04-25 23:30 4.85128 -52.71994 7672 ft 273 kts 123°
2026-04-25 23:30 4.84028 -52.70434 7222 ft 274 kts 123°
2026-04-25 23:30 4.82934 -52.68882 6775 ft 269 kts 123°
2026-04-25 23:31 4.81855 -52.67357 6346 ft 267 kts 123°
2026-04-25 23:31 4.80795 -52.65862 5895 ft 265 kts 123°
2026-04-25 23:31 4.79726 -52.64355 5462 ft 263 kts 123°
2026-04-25 23:31 4.78672 -52.62865 5040 ft 261 kts 123°
2026-04-25 23:32 4.77631 -52.61393 4614 ft 254 kts 123°
2026-04-25 23:32 4.76632 -52.59985 4204 ft 242 kts 123°
2026-04-25 23:32 4.75701 -52.58674 4092 ft 219 kts 123°
2026-04-25 23:32 4.74854 -52.57482 4027 ft 200 kts 122°
2026-04-25 23:33 4.74080 -52.56380 3929 ft 190 kts 118°
2026-04-25 23:33 4.73650 -52.55165 3630 ft 182 kts 93°
2026-04-25 23:33 4.73791 -52.53963 3433 ft 169 kts 72°
2026-04-25 23:33 4.74261 -52.52911 3213 ft 163 kts 68°
2026-04-25 23:34 4.74725 -52.51907 2998 ft 158 kts 68°
2026-04-25 23:34 4.75181 -52.50918 2794 ft 154 kts 68°
2026-04-25 23:34 4.75624 -52.49958 2614 ft 150 kts 68°
2026-04-25 23:34 4.76052 -52.49030 2425 ft 142 kts 68°
2026-04-25 23:35 4.76455 -52.48155 2268 ft 137 kts 68°
2026-04-25 23:35 4.76854 -52.47291 2080 ft 136 kts 68°
2026-04-25 23:35 4.77254 -52.46422 1903 ft 137 kts 67°
2026-04-25 23:35 4.77649 -52.45556 1711 ft 136 kts 66°
2026-04-25 23:36 4.78046 -52.44700 1518 ft 136 kts 67°
2026-04-25 23:36 4.78447 -52.43826 1355 ft 140 kts 67°
2026-04-25 23:36 4.78858 -52.42926 1171 ft 144 kts 68°
2026-04-25 23:36 4.79268 -52.42031 997 ft 138 kts 66°
2026-04-25 23:37 4.79674 -52.41164 820 ft 137 kts 65°
2026-04-25 23:37 4.80069 -52.40297 641 ft 137 kts 66°
2026-04-25 23:37 4.80472 -52.39427 502 ft 137 kts 65°
2026-04-25 23:37 4.80877 -52.38556 331 ft 141 kts 65°
2026-04-25 23:38 4.81288 -52.37668 127 ft 138 kts 65°
2026-04-25 23:38 4.81675 -52.36832 84 ft 119 kts 66°
2026-04-25 23:38 4.82062 -52.35982 426 ft 145 kts 66°
2026-04-25 23:38 4.82492 -52.35066 1247 ft 144 kts 65°
2026-04-25 23:39 4.82964 -52.34125 1641 ft 162 kts 66°
2026-04-25 23:39 4.83534 -52.33064 1935 ft 185 kts 64°
2026-04-25 23:39 4.84159 -52.31892 1988 ft 190 kts 64°
2026-04-25 23:39 4.84770 -52.30729 2007 ft 188 kts 65°
2026-04-25 23:40 4.85272 -52.29530 2002 ft 187 kts 84°
2026-04-25 23:40 4.85019 -52.28285 2005 ft 187 kts 120°
2026-04-25 23:40 4.83993 -52.27481 2008 ft 195 kts 158°
2026-04-25 23:40 4.82628 -52.27496 2008 ft 204 kts 197°
2026-04-25 23:41 4.81487 -52.28363 2017 ft 212 kts 230°
2026-04-25 23:41 4.80670 -52.29615 2013 ft 214 kts 237°
2026-04-25 23:41 4.79967 -52.30841 2014 ft 197 kts 238°
2026-04-25 23:41 4.79305 -52.32008 2005 ft 190 kts 238°
2026-04-25 23:42 4.78661 -52.33150 2004 ft 187 kts 238°
2026-04-25 23:42 4.78035 -52.34288 2005 ft 186 kts 239°
2026-04-25 23:42 4.77415 -52.35430 2007 ft 186 kts 239°
2026-04-25 23:42 4.76822 -52.36527 1992 ft 171 kts 239°
2026-04-25 23:43 4.76252 -52.37584 2008 ft 173 kts 239°
2026-04-25 23:43 4.75678 -52.38640 2011 ft 173 kts 239°
2026-04-25 23:43 4.75111 -52.39692 2021 ft 167 kts 240°
2026-04-25 23:43 4.74849 -52.40802 1967 ft 163 kts 275°
2026-04-25 23:44 4.75251 -52.41811 1866 ft 154 kts 318°
2026-04-25 23:44 4.76122 -52.42329 1788 ft 143 kts 354°
2026-04-25 23:44 4.77093 -52.42327 1637 ft 139 kts 12°
2026-04-25 23:44 4.78041 -52.42184 1293 ft 139 kts 19°
2026-04-25 23:45 4.78911 -52.41814 1013 ft 134 kts 38°
2026-04-25 23:45 4.79560 -52.41156 873 ft 135 kts 58°
2026-04-25 23:45 4.80011 -52.40335 675 ft 136 kts 64°
2026-04-25 23:45 4.80430 -52.39482 519 ft 137 kts 64°
2026-04-25 23:46 4.80847 -52.38622 338 ft 137 kts 64°
2026-04-25 23:46 4.81246 -52.37762 141 ft 135 kts 67°
2026-04-25 23:46 4.81633 -52.36926 35 ft 123 kts 66°
2026-04-25 23:46 4.81935 -52.36264 29 ft 81 kts 65°
2026-04-25 23:47 4.82108 -52.35883 29 ft 51 kts 65°
2026-04-25 23:47 4.82227 -52.35624 29 ft 32 kts 65°
2026-04-25 23:47 4.82270 -52.35519 30 ft 14 kts 79°
2026-04-25 23:47 4.82272 -52.35490 30 ft 1 kts 88°
2026-04-25 23:48 4.82279 -52.35488 30 ft 2 kts
2026-04-25 23:48 4.82278 -52.35517 30 ft 12 kts 251°
2026-04-25 23:48 4.82239 -52.35600 29 ft 13 kts 244°
2026-04-25 23:48 4.82202 -52.35678 29 ft 12 kts 246°
2026-04-25 23:49 4.82170 -52.35750 29 ft 11 kts 246°
2026-04-25 23:49 4.82141 -52.35816 29 ft 10 kts 246°
2026-04-25 23:49 4.82114 -52.35877 29 ft 9 kts 246°
2026-04-25 23:49 4.82105 -52.35934 29 ft 8 kts 283°
2026-04-25 23:50 4.82132 -52.35977 29 ft 7 kts 305°
2026-04-25 23:50 4.82159 -52.36014 29 ft 6 kts 305°
2026-04-25 23:50 4.82181 -52.36047 29 ft 5 kts 303°
2026-04-25 23:50 4.82192 -52.36085 29 ft 6 kts 270°
2026-04-25 23:51 4.82178 -52.36128 29 ft 6 kts 246°
2026-04-25 23:51 4.82161 -52.36165 29 ft 6 kts 246°
2026-04-25 23:51 4.82146 -52.36198 29 ft 5 kts 243°
2026-04-25 23:51 4.82129 -52.36224 29 ft 4 kts 235°
2026-04-25 23:52 4.82115 -52.36248 29 ft 4 kts 244°
2026-04-25 23:52 4.82115 -52.36270 29 ft 3 kts 285°
2026-04-25 23:52 4.82125 -52.36281 29 ft 2 kts 323°
2026-04-25 23:52 4.82141 -52.36288 29 ft 2 kts 336°
2026-04-25 23:53 4.82153 -52.36294 29 ft 2 kts 336°
2026-04-25 23:53 4.82162 -52.36298 29 ft 1 kts 335°
2026-04-25 23:53 4.82173 -52.36303 29 ft 2 kts 335°
2026-04-25 23:53 4.82179 -52.36306 29 ft 0 kts 335°